Flag for U.S.A. Weather past 2 weeks in New Orleans, Louisiana, U.S.A.

Now
77 °F

Overcast.


Feels Like: 79 °F
Forecast: 61 / 72 °F
Wind: 10 mph from Southwest

Location: Lakefront Airport

Current Time: Mar 2, 2015 at 11:25:52 AM

Latest Report: Mar 2, 2015 at 10:53 AM


Visibility: 10 mi

Pressure: 30.26 "Hg

Humidity: 74%

Dew point: 68 °F

Location of New OrleansLocation

Historic Weather in New Orleans — Graph

°F

New Orleans temperature yesterday

Maximum temperature yesterday: 61 °F (at 1:53 PM)
Minimum temperature yesterday: 56 °F (at 5:53 AM)
Average temperature yesterday: 58 °F

Past Weeks' High & Low Weather Summary

 TemperatureHumidityPressure
High77 °F (Feb 21, 12:53 PM)93% (Mar 1, 9:53 PM)30.48 "Hg (Mar 1, 9:53 PM)
Low37 °F (Feb 17, 4:53 AM)24% (Feb 19, 2:53 PM)29.66 "Hg (Feb 25, 1:53 PM)
Average53 °F69%30.16 "Hg
* Reported Feb 15 9:53 AM — Mar 2 9:53 AM, New Orleans, Weather by CustomWeather, © 2015

Note: Actual official high and low records may vary slightly from our data, if they occured in-between our weather recording intervals... More about our weather records

Advertising

New Orleans weather history for previous 24 hours

 ConditionsComfort  
Time TempWeatherWind HumidityBarometerVisibility
9:53 AM
Mon, Mar 2
71 °FMostly cloudy.9 mph81%30.26 "Hg8 mi
8:53 AM66 °FMore clouds than sun.7 mph90%30.27 "Hg7 mi
7:53 AM63 °FFog.6 mph90%30.25 "Hg2 mi
6:53 AM61 °FFog.7 mph90%30.25 "Hg5 mi
5:53 AM59 °FFog.9 mph90%30.24 "Hg1 mi
4:53 AM57 °FFog.6 mph93%30.24 "Hg1 mi
3:53 AM59 °FLow clouds.3 mph90%30.23 "Hg7 mi
3:03 AM60 °FLight rain. Overcast.9 mph86%30.25 "Hg8 mi
2:56 AM59 °FLight rain. Fog.13 mph90%30.25 "Hg2 mi
1:53 AM60 °FRain. Fog.16 mph90%30.24 "Hg3 mi
12:53 AM61 °FRain. Fog.17 mph90%30.25 "Hg4 mi
11:53 PM
Sun, Mar 1
60 °FRain. Fog.10 mph90%30.28 "Hg3 mi
10:53 PM58 °FFog.16 mph93%30.29 "Hg1 mi
9:53 PM58 °FFog.10 mph93%30.29 "Hg1 mi
8:53 PM58 °FFog.10 mph90%30.29 "Hg1 mi
7:53 PM58 °FFog.12 mph90%30.25 "Hg1 mi
6:53 PM58 °FFog.13 mph90%30.24 "Hg1 mi
5:53 PM58 °FFog.10 mph90%30.25 "Hg1 mi
4:53 PM59 °FFog.9 mph87%30.24 "Hg1 mi
3:53 PM60 °FFog.10 mph86%30.24 "Hg1 mi
2:53 PM60 °FFog.12 mph86%30.24 "Hg1 mi
1:53 PM61 °FLow clouds.9 mph83%30.25 "Hg1 mi
12:53 PM60 °FFog.10 mph86%30.26 "Hg1 mi
12:03 PM59 °FFog.12 mph90%30.31 "Hg2 mi
11:53 AM59 °FFog.10 mph90%30.29 "Hg1 mi
Weather by CustomWeather, © 2015

See weather overviewHow to use our weather pages